Wells Aircraft, Inc. Hutchinson Municipal
(888) 496-5545
800 Airport Road
Hutchinson, KS 67501
(change)

Location

Wells Aircraft is located on the south end of the Hutchinson Municipal Airport (KHUT), in Hutchinson, Kansas.

Wells Aircraft, Inc.
800 Airport Road
Hutchinson, KS 67501
Map
Wells Location at KHUT

Quick Links


AirNav Information
(KHUT)

Hutchinson Weather

Hutchinson (KHUT)
Airport Diagram

Additional Resources

They say, "if you don't like the weather in Kansas, wait five minutes and it'll change." Be prepared with these aviation resources.

KHUT 291152Z 03004KT 10SM CLR 21/18 A2998 RMK AO2 SLP127 70017 T02060183 10222 20200 53016                KHUT 291152Z 03004KT 10SM CLR 21/18 A2998 RMK AO2 SLP127 70017 T02060183 10222 20200 53016                KHUT 291152Z 03004KT 10SM CLR 21/18 A2998 RMK AO2 SLP127 70017 T02060183 10222 20200 53016                KHUT 291152Z 03004KT 10SM CLR 21/18 A2998 RMK AO2 SLP127 70017 T02060183 10222 20200 53016                KHUT 291152Z 03004KT 10SM CLR 21/18 A2998 RMK AO2 SLP127 70017 T02060183 10222 20200 53016                KHUT 291152Z 03004KT 10SM CLR 21/18 A2998 RMK AO2 SLP127 70017 T02060183 10222 20200 53016                
 
 
Cirrus Aircraft